Stations météo

réclame
Mon MeteoGroup
Tholey, Allemagne (10706): Température de l'air & dewpoint: 12.11.2017 00:00:00 - 18.11.2017 00:00:00 (CET)Tholey, Allemagne (10706): Température de l'air 5cm & Température de l'air -5cm: 12.11.2017 00:00:00 - 18.11.2017 00:00:00 (CET)Tholey, Allemagne (10706): Température de l'air -20cm & Température de l'air -100cm: 12.11.2017 00:00:00 - 18.11.2017 00:00:00 (CET)Tholey, Allemagne (10706): Vitesse du vent & gusts: 12.11.2017 00:00:00 - 18.11.2017 00:00:00 (CET)Tholey, Allemagne (10706): Direction du vent: 12.11.2017 00:00:00 - 18.11.2017 00:00:00 (CET)Tholey, Allemagne (10706): reduced air pressure: 12.11.2017 00:00:00 - 18.11.2017 00:00:00 (CET)Tholey, Allemagne (10706): visibility: 12.11.2017 00:00:00 - 18.11.2017 00:00:00 (CET)Tholey, Allemagne (10706): Ensoleillement: 12.11.2017 00:00:00 - 18.11.2017 00:00:00 (CET)Tholey, Allemagne (10706): Quantités de précipitations: 12.11.2017 00:00:00 - 18.11.2017 00:00:00 (CET)
Date & Time tt [°C] td [°C] tt 5cm [°C] tt -5cm [°C] tt -20cm [°C] tt -100cm [°C] ff [km/h] ff [knt] fx [km/h] fx [knt] dd ppp [hPa] vv [km] sd [min] rr [mm]
18.11.2017 00:00:00 - - - - - - - - - - - - - - -
17.11.2017 23:00:00 4,9 4,8 4,4 5,1 5,7 9,4 3 2 9 5 W 1026,1 2,7 0 0,1
17.11.2017 22:00:00 4,9 4,7 4,8 5,1 5,7 9,4 9 5 10 6 WNW 1026,7 2,6 0 0,0
17.11.2017 21:00:00 4,9 4,7 4,9 5,2 5,7 9,4 2 1 5 3 WSW 1026,3 0,3 0 0,0
17.11.2017 20:00:00 4,9 4,7 4,7 5,2 5,8 9,5 5 3 8 4 W 1026,6 0,4 0 0,0
17.11.2017 19:00:00 5,3 5,1 4,5 5,2 5,8 9,5 4 2 7 4 WNW 1026,4 3,6 0 0,0
17.11.2017 18:00:00 5,1 5,1 4,2 5,4 5,8 9,5 4 2 6 3 WNW 1026,8 2,2 0 0,0
17.11.2017 17:00:00 5,4 4,8 4,5 6,1 5,7 9,5 3 2 8 4 WSW 1026,6 4,2 0 0,0
17.11.2017 16:00:00 5,7 5,3 6,0 7,2 5,5 9,5 8 4 12 7 SW 1026,8 3,3 7 0,0
17.11.2017 15:00:00 5,4 4,9 6,3 7,6 5,2 9,5 7 4 9 5 W 1026,6 3,6 0 0,0
17.11.2017 14:00:00 5,1 4,7 6,1 7,6 5,0 9,5 5 3 7 4 SSE 1026,9 3,0 0 0,0
17.11.2017 13:00:00 4,7 4,4 5,9 7,3 4,8 9,5 0 0 8 4 N 1027,3 2,9 0 0,0
17.11.2017 12:00:00 3,4 3,3 4,4 5,8 4,6 9,5 4 2 7 4 WSW 1027,8 0,5 0 0,0
17.11.2017 11:00:00 2,7 2,7 3,5 4,8 4,5 9,5 3 2 5 3 SW 1028,2 0,1 0 0,0
17.11.2017 10:00:00 2,2 2,2 2,9 4,0 4,5 9,5 3 2 8 4 WSW 1028,0 0,1 0 0,0
17.11.2017 09:00:00 2,0 2,0 2,4 3,2 4,5 9,5 5 3 7 4 WSW 1027,8 0,1 0 0,0
17.11.2017 08:00:00 1,8 1,8 2,0 2,9 4,5 9,5 6 3 13 7 SW 1027,3 0,1 0 0,0
17.11.2017 07:00:00 1,7 1,7 1,9 2,8 4,5 9,5 8 5 12 6 WSW 1027,0 0,1 0 0,0
17.11.2017 06:00:00 1,7 1,7 1,9 2,7 4,5 9,5 10 6 17 9 WSW 1026,9 0,1 0 0,0
17.11.2017 05:00:00 1,6 1,6 1,8 2,7 4,6 9,5 12 7 16 9 W 1026,8 0,1 0 0,0
17.11.2017 04:00:00 1,6 1,6 1,8 2,7 4,6 9,6 11 6 15 8 W 1026,9 0,1 0 0,0
17.11.2017 03:00:00 1,5 1,5 1,7 2,7 4,6 9,6 9 5 16 8 W 1026,8 0,1 0 0,0
17.11.2017 02:00:00 1,4 1,4 1,7 2,7 4,7 9,6 9 5 16 9 W 1026,7 0,1 0 0,0
17.11.2017 01:00:00 1,4 1,3 1,7 2,8 4,7 9,6 12 7 16 9 WSW 1026,8 0,1 0 0,0
17.11.2017 00:00:00 1,3 1,2 1,6 2,8 4,8 9,6 11 6 16 9 WSW 1027,1 0,1 0 0,0
16.11.2017 23:00:00 1,3 1,3 1,6 2,9 4,8 9,6 11 6 16 8 WSW 1026,9 0,1 0 0,0
16.11.2017 22:00:00 1,3 1,3 1,6 2,9 4,9 9,6 10 6 16 9 W 1026,9 0,1 0 0,0
16.11.2017 21:00:00 1,4 1,3 1,7 3,1 4,9 9,6 11 6 16 9 WSW 1026,6 0,1 0 0,0
16.11.2017 20:00:00 1,5 1,4 1,9 3,3 5,0 9,6 8 4 12 6 SW 1026,4 0,1 0 0,0
16.11.2017 19:00:00 1,6 1,6 2,0 3,4 5,0 9,6 9 5 13 7 SW 1026,2 0,1 0 0,0
16.11.2017 18:00:00 1,6 1,4 2,0 3,7 5,0 9,6 8 4 11 6 SW 1025,9 0,1 0 0,0
16.11.2017 17:00:00 1,8 1,7 2,3 3,9 5,0 9,6 6 3 11 6 SE 1025,6 0,2 0 0,0
16.11.2017 16:00:00 2,2 1,8 2,8 4,5 4,9 9,6 5 3 11 6 SSW 1025,5 2,4 0 0,0
16.11.2017 15:00:00 2,2 1,6 3,3 5,1 4,8 9,6 4 2 10 6 SSE 1025,5 6 0 0,0
16.11.2017 14:00:00 2,5 1,9 3,3 5,1 4,6 9,6 7 4 15 8 SSE 1025,5 6 0 0,0
16.11.2017 13:00:00 2,6 1,6 4,0 5,3 4,4 9,6 9 5 12 7 ESE 1025,4 12 0 0,0
16.11.2017 12:00:00 2,3 1,5 3,4 4,5 4,3 9,6 5 3 11 6 NNE 1026,3 10 0 0,0
16.11.2017 11:00:00 1,8 1,7 3,0 3,8 4,3 9,6 8 4 18 10 E 1026,4 2,2 0 0,0
16.11.2017 10:00:00 1,4 1,2 2,0 2,9 4,2 9,7 11 6 20 11 E 1025,8 0,1 0 0,0
16.11.2017 09:00:00 1,1 0,9 1,5 2,5 4,2 9,7 15 8 22 12 E 1025,9 1,3 0 0,0
16.11.2017 08:00:00 1,2 0,9 1,4 2,2 4,3 9,7 16 8 22 12 E 1025,6 1,2 0 0,0
16.11.2017 07:00:00 1,5 1,2 1,6 2,0 4,3 9,7 11 6 25 14 ENE 1025,5 2,6 0 0,0
16.11.2017 06:00:00 1,6 1,1 1,3 1,7 4,4 9,7 16 8 24 13 E 1025,0 5 0 0,0
16.11.2017 05:00:00 1,7 1,2 0,9 1,3 4,5 9,7 18 10 27 15 ENE 1025,3 7 0 0,0
16.11.2017 04:00:00 1,8 1,4 1,5 1,8 4,6 9,7 19 10 27 15 NE 1025,6 2,6 0 0,0
16.11.2017 03:00:00 1,7 0,8 0,7 1,2 4,8 9,7 20 11 27 15 ENE 1026,0 6 0 0,0
16.11.2017 02:00:00 2,4 0,6 1,0 1,2 5,0 9,7 21 11 24 13 NE 1026,0 15 0 0,0
16.11.2017 01:00:00 1,9 0,4 0,7 1,3 5,1 9,7 14 8 23 13 NE 1026,2 11 0 0,0
16.11.2017 00:00:00 2,5 0,6 1,3 1,6 5,3 9,7 16 9 23 12 NE 1026,4 15 0 0,0
15.11.2017 23:00:00 2,9 0,2 1,5 1,9 5,6 9,7 16 8 21 11 NE 1026,6 28 0 0,0
15.11.2017 22:00:00 3,7 0,0 2,0 2,3 5,8 9,7 15 8 22 12 NE 1026,9 48 0 0,0
15.11.2017 21:00:00 4,2 0,2 2,5 2,8 6,0 9,7 14 7 19 11 ENE 1026,8 52 0 0,0
15.11.2017 20:00:00 4,1 2,0 2,4 3,3 6,2 9,7 12 7 18 10 ENE 1027,0 25 0 0,0
15.11.2017 19:00:00 4,3 2,3 2,6 3,9 6,4 9,8 13 7 16 9 ENE 1026,8 39 0 0,0
15.11.2017 18:00:00 4,9 2,2 3,0 5,0 6,5 9,8 8 5 14 7 E 1026,6 59 0 0,0
15.11.2017 17:00:00 5,9 2,8 4,6 6,7 6,4 9,8 9 5 11 6 E 1026,3 54 16 0,0
15.11.2017 16:00:00 7,2 3,4 6,8 9,1 6,2 9,8 5 3 8 4 ESE 1026,2 61 37 0,0
15.11.2017 15:00:00 7,6 3,4 10,0 11,8 5,8 9,8 7 4 10 5 SE 1026,0 51 60 0,0
15.11.2017 14:00:00 7,3 1,8 10,0 12,5 5,3 9,8 3 2 11 6 SSE 1026,3 57 60 0,0
15.11.2017 13:00:00 7,0 3,2 9,0 12,3 4,9 9,8 5 3 11 6 SE 1027,1 44 60 0,0
15.11.2017 12:00:00 5,4 4,7 8,4 10,6 4,5 9,8 6 3 10 5 E 1027,7 19 58 0,0
15.11.2017 11:00:00 2,3 2,2 5,0 6,3 4,4 9,8 4 2 9 5 ENE 1028,8 0,1 18 0,0
15.11.2017 10:00:00 0,0 0,0 1,6 3,2 4,4 9,8 7 4 10 5 E 1029,0 0,1 0 0,0
15.11.2017 09:00:00 -0,8 -0,8 -0,2 2,2 4,5 9,8 1 1 4 2 N 1028,9 0,1 0 0,0
15.11.2017 08:00:00 -0,9 -0,9 -0,4 2,0 4,5 9,8 0 0 6 3 N 1028,7 0,2 0 0,0
15.11.2017 07:00:00 -0,2 -0,2 0,3 2,3 4,6 9,8 4 2 7 4 ENE 1028,2 0,1 0 0,0
15.11.2017 06:00:00 0,1 0,1 0,5 2,3 4,7 9,8 4 2 7 4 S 1028,1 0,1 0 0,0
15.11.2017 05:00:00 0,2 0,2 0,5 2,4 4,7 9,8 5 3 10 6 W 1028,1 0,1 0 0,0
15.11.2017 04:00:00 0,6 0,6 0,9 2,6 4,8 9,9 6 4 13 7 W 1028,2 0,1 0 0,0
15.11.2017 03:00:00 0,8 0,8 1,2 2,8 4,8 9,9 5 3 10 5 W 1028,3 0,1 0 0,0
15.11.2017 02:00:00 1,2 1,2 1,5 2,8 4,9 9,9 8 4 13 7 W 1028,5 0,1 0 0,0
15.11.2017 01:00:00 1,2 1,2 1,5 2,8 4,9 9,9 10 6 14 8 WNW 1028,6 0,1 0 0,0
15.11.2017 00:00:00 1,4 1,4 1,6 2,9 5,0 9,9 6 3 11 6 W 1028,8 0,1 0 0,0
14.11.2017 23:00:00 1,2 1,2 1,5 2,8 5,1 9,9 6 4 10 5 W 1028,6 0,1 0 0,0
14.11.2017 22:00:00 1,0 1,0 1,3 2,8 5,2 9,9 6 3 11 6 WSW 1028,8 0,1 0 0,0
14.11.2017 21:00:00 0,9 0,9 1,1 2,5 5,4 9,9 7 4 11 6 SW 1028,7 0,1 0 0,0
14.11.2017 20:00:00 1,6 1,4 0,8 2,5 5,6 9,9 10 5 14 7 W 1028,4 0,1 0 0,0
14.11.2017 19:00:00 2,5 1,9 1,3 3,4 5,7 9,9 7 4 15 8 WSW 1028,0 5 0 0,0
14.11.2017 18:00:00 3,2 2,0 2,2 4,1 5,8 9,9 7 4 15 8 W 1027,5 8 0 0,0
14.11.2017 17:00:00 4,8 2,0 4,1 5,9 5,7 9,9 10 6 17 9 WSW 1026,9 29 42 0,0
14.11.2017 16:00:00 6,0 1,6 6,2 8,1 5,5 9,9 12 6 19 10 WSW 1026,2 43 60 0,0
14.11.2017 15:00:00 6,2 1,0 7,6 10,0 5,2 9,9 12 6 20 11 W 1026,2 45 60 0,0
14.11.2017 14:00:00 6,1 1,8 8,4 10,9 4,7 9,9 10 6 17 9 WSW 1026,4 20 60 0,0
14.11.2017 13:00:00 5,5 1,4 8,1 10,8 4,3 9,9 11 6 14 8 WSW 1026,7 26 60 0,0
14.11.2017 12:00:00 5,3 2,6 7,4 9,9 4,0 10,0 7 4 9 5 SSW 1027,0 20 60 0,0
14.11.2017 11:00:00 3,6 1,6 5,2 7,0 3,8 10,0 4 2 6 3 WSW 1027,7 16 60 0,0
14.11.2017 10:00:00 1,8 0,2 2,7 2,5 3,9 10,0 4 2 5 3 SSE 1027,7 4,2 60 0,0
14.11.2017 09:00:00 2,1 1,1 0,2 0,6 3,9 10,0 0 0 5 3 N 1027,1 15 30 0,0
14.11.2017 08:00:00 -0,2 -0,2 -2,6 0,6 4,0 10,0 2 1 6 3 ESE 1027,0 0,1 0 0,0
14.11.2017 07:00:00 0,7 0,5 -2,8 0,6 4,2 10,0 3 1 7 4 NE 1026,4 3,9 0 0,0
14.11.2017 06:00:00 1,3 0,9 -2,1 0,6 4,3 10,0 3 1 8 5 ENE 1025,8 16 0 0,0
14.11.2017 05:00:00 2,4 1,0 -0,9 0,6 4,4 10,0 8 4 9 5 W 1025,1 22 0 0,0
14.11.2017 04:00:00 2,5 1,1 -2,0 0,7 4,6 10,0 4 2 10 5 NE 1025,1 24 0 0,0
14.11.2017 03:00:00 1,4 1,0 -1,5 0,7 4,8 10,0 6 3 10 5 W 1025,1 8 0 0,0
14.11.2017 02:00:00 2,5 1,2 -1,6 0,8 5,0 10,0 2 1 8 4 ENE 1024,4 20 0 0,0
14.11.2017 01:00:00 2,1 0,9 -0,7 1,3 5,1 10,0 5 3 20 11 ESE 1024,4 14 0 0,0
14.11.2017 00:00:00 3,8 1,4 1,8 1,8 5,3 10,0 13 7 25 13 N 1023,7 22 0 0,0
13.11.2017 23:00:00 4,0 1,1 2,2 2,1 5,5 10,0 16 9 27 15 N 1023,3 21 0 0,0
13.11.2017 22:00:00 3,9 1,4 1,8 2,4 5,6 10,0 13 7 22 12 N 1023,1 23 0 0,0
13.11.2017 21:00:00 4,4 1,5 2,1 2,8 5,8 10,0 12 6 20 11 NNW 1022,6 24 0 0,0
13.11.2017 20:00:00 4,7 1,7 3,4 3,9 5,9 10,0 7 4 16 9 NNW 1022,4 26 0 0,0
13.11.2017 19:00:00 4,9 1,9 3,6 4,3 5,9 10,0 4 2 15 8 S 1021,8 42 0 0,0
13.11.2017 18:00:00 4,9 1,8 3,8 4,7 6,0 10,0 9 5 32 17 WNW 1021,0 45 0 0,1
13.11.2017 17:00:00 5,7 1,2 5,0 5,5 6,0 10,0 8 4 22 12 WNW 1019,9 48 36 0,0
13.11.2017 16:00:00 6,1 1,7 5,1 7,5 5,8 10,0 5 3 34 18 W 1019,0 45 57 0,0
13.11.2017 15:00:00 6,5 0,7 6,0 7,9 5,6 10,0 18 10 35 19 NNW 1018,6 48 41 0,0
13.11.2017 14:00:00 6,8 2,2 8,7 9,1 5,3 10,0 11 6 28 15 NNW 1018,0 30 23 0,2
13.11.2017 13:00:00 5,1 2,4 4,6 6,2 5,1 10,0 16 8 24 13 NNE 1018,0 7 0 0,3
13.11.2017 12:00:00 5,7 2,0 6,4 7,1 4,9 10,0 10 5 25 13 N 1017,6 50 3 0,0
13.11.2017 11:00:00 5,4 2,1 5,9 5,7 4,8 10,0 8 4 26 14 NNE 1017,1 43 5 0,0
13.11.2017 10:00:00 4,4 1,8 4,1 4,0 4,8 10,0 11 6 25 13 N 1016,3 56 0 0,0
13.11.2017 09:00:00 3,9 1,7 2,8 3,5 4,7 10,0 9 5 19 10 NW 1015,8 30 0 0,0
13.11.2017 08:00:00 3,7 1,8 3,0 3,1 4,7 10,0 6 4 25 13 WSW 1015,1 69 0 0,1
13.11.2017 07:00:00 3,7 1,5 2,8 3,0 4,7 10,0 8 4 27 15 WNW 1014,0 64 0 0,2
13.11.2017 06:00:00 3,4 1,5 2,7 2,9 4,7 10,0 10 5 19 11 NW 1013,4 54 0 0,5
13.11.2017 05:00:00 2,9 1,8 2,5 2,9 4,7 10,0 12 7 21 11 W 1012,5 9 0 0,1
13.11.2017 04:00:00 2,6 1,6 2,2 2,7 4,8 10,0 11 6 17 9 W 1011,8 26 0 0,1
13.11.2017 03:00:00 2,3 1,3 2,0 2,6 4,8 10,0 13 7 18 10 W 1011,0 25 0 0,0
13.11.2017 02:00:00 1,7 1,1 1,6 2,4 4,9 10,0 12 6 21 12 W 1010,7 11 0 0,0
13.11.2017 01:00:00 1,6 1,1 0,8 2,3 4,9 10,0 11 6 16 9 W 1010,3 9 0 0,0
13.11.2017 00:00:00 2,2 1,8 2,2 2,9 4,9 10,0 6 4 12 7 WSW 1009,7 7 0 0,0
12.11.2017 23:00:00 2,1 1,7 2,0 2,7 4,9 10,0 10 5 20 11 W 1008,7 7 0 0,0
12.11.2017 22:00:00 2,1 1,5 2,0 2,6 4,9 10,0 10 5 22 12 W 1008,1 11 0 0,0
12.11.2017 21:00:00 1,8 1,2 1,8 2,7 5,0 10,0 10 5 18 10 W 1007,4 7 0 0,4
12.11.2017 20:00:00 1,8 0,9 1,7 2,7 5,0 9,9 12 6 25 14 WSW 1006,3 16 0 0,0
12.11.2017 19:00:00 2,0 0,5 1,9 2,6 5,1 9,9 14 8 31 17 WSW 1005,1 44 0 0,0
12.11.2017 18:00:00 2,1 0,7 1,9 2,6 5,1 9,9 11 6 36 19 WSW 1004,1 70 0 0,3
12.11.2017 17:00:00 2,4 1,0 1,9 3,2 5,1 9,9 24 13 41 22 W 1003,1 4,1 0 0,1
12.11.2017 16:00:00 2,7 1,6 2,7 3,9 4,9 9,8 14 8 26 14 W 1002,4 52 1 0,1
12.11.2017 15:00:00 2,3 1,0 2,3 3,7 4,7 9,8 9 5 27 15 W 1001,8 12 0 0,1
12.11.2017 14:00:00 2,1 1,2 2,5 3,3 4,3 9,9 11 6 21 11 W 1001,4 37 0 0,3
12.11.2017 13:00:00 1,2 0,7 1,3 2,2 4,4 9,9 11 6 26 14 NE 1000,0 19 0 3,2
12.11.2017 12:00:00 0,8 0,3 0,7 1,8 4,7 9,8 19 10 34 18 NE 1000,7 4,1 0 6,3
12.11.2017 11:00:00 1,6 0,8 1,5 3,1 4,3 9,8 24 13 46 25 NNE 1001,4 2,5 0 3,4
12.11.2017 10:00:00 3,7 3,0 3,9 4,9 5,4 9,9 13 7 18 10 ENE 1002,0 2,3 0 1,4
12.11.2017 09:00:00 3,8 3,6 3,9 4,8 5,7 10,0 6 3 14 7 E 1004,2 1,9 0 2,2
12.11.2017 08:00:00 4,0 3,6 4,2 5,0 6,4 10,2 5 3 8 5 ENE 1005,8 0,2 0 1,3
12.11.2017 07:00:00 4,1 4,1 4,1 5,0 6,5 10,2 3 2 6 3 ENE 1007,3 0,2 0 0,2
12.11.2017 06:00:00 4,4 4,1 4,0 4,9 6,6 10,1 4 2 6 3 W 1008,5 1,4 0 0,0
12.11.2017 05:00:00 4,3 3,5 3,4 4,9 6,7 10,1 4 2 7 4 WNW 1009,4 10 0 0,0
12.11.2017 04:00:00 4,5 3,6 3,9 5,0 6,8 10,1 4 2 7 4 SW 1009,8 14 0 0,0
12.11.2017 03:00:00 4,7 3,4 3,9 5,2 6,9 10,1 2 1 15 8 S 1010,3 18 0 0,0
12.11.2017 02:00:00 5,6 2,8 4,5 5,3 7,0 10,1 9 5 16 9 NNW 1010,5 37 0 0,0
12.11.2017 01:00:00 5,8 3,4 4,6 5,8 7,1 10,0 10 5 21 11 NNW 1010,9 40 0 0,0
12.11.2017 00:00:00 6,2 4,5 5,4 6,4 7,1 10,0 5 3 8 5 WNW 1011,0 34 0 0,0

tt = Température de l'air
td = dewpoint
tt 5cm = Température de l'air 5cm
tt -5cm = Température de l'air -5cm
tt -20cm = Température de l'air -20cm
tt -100cm = Température de l'air -100cm
ff = Vitesse du vent
fx = gusts
dd = Direction du vent
ppp = reduced air pressure
vv = visibility
sd = Ensoleillement
rr = Quantités de précipitations

stations d'obs. à proximité